Weather in Gujranwala

Pakistan     32°09′11″N   74°10′06″E
temp.,
°C
wind,
m/s
gust,
m/s
humid.,
%
clouds,
%
prec.,
mm/h
press.,
hPa
HPBL,
m
15 may, sat
sat1523:00+28ne1239100 0.0 100351
02:00+26ne3542100 0.0 1003116
05:00+25ne364493 0.0 1004124
08:00+29e233296 0.0 1006354
11:00+34nnw212583 0.0 10061191
14:00+33n882396 0.0 1005924
17:00+34ne55190 0.1 1003732
20:00+29n3528100 0.0 1005120
16 may, sun
sun1623:00+28nne3431100 0.0 100684
02:00+27n2437100 0.3 1006112
05:00+26nnw4942100 0.4 1006207
08:00+31nne242881 0.1 1007257
11:00+36nw3218100 0.1 10071647
14:00+38wnw3315100 0.0 10042715
17:00+38nw331698 0.0 10032587
20:00+34n342277 0.0 100483
17 may, mon
mon1723:00+32nnw222691 0.0 100538
02:00+29nw3431100 0.0 100570
05:00+28nnw233338 0.0 100560
08:00+34n122448 0.0 1006311
11:00+39w331785 0.0 10062648
14:00+41wnw44125 0.0 10034055
17:00+40nw35127 0.0 10014086
20:00+35nnw37171 0.0 1002172
18 may, tue
tue1823:00+33nnw35198 0.0 100383
02:00+31nnw352435 0.0 1003109
05:00+29nne222726 0.0 100336
08:00+34nne11211 0.0 1004306
11:00+40wsw33130 0.0 10032265
14:00+42wnw34112 0.0 10004484
17:00+41nw341139 0.0 9984294
20:00+37n241479 0.0 100078
19 may, wed
wed1923:00+34sw7123190 0.0 1002565
02:00+31wsw6123725 0.0 1002660
05:00+29wnw38428 0.0 1003287
08:00+33wsw343431 0.0 1004792
11:00+38wsw332214 0.0 10031809
14:00+42wsw351384 0.0 10004798
17:00+41w241299 0.0 9984475
20:00+36sw71219100 0.0 1000400